Waarnemingen

Advertentie
Mijn weer
Mont-De-Marsan, Frankrijk (7607): temperatuur & dauwpunt: 27.11.2020 23:00:00 - 03.12.2020 23:00:00 (CET)Mont-De-Marsan, Frankrijk (7607): temperatuur 5cm: 27.11.2020 23:00:00 - 03.12.2020 23:00:00 (CET)Mont-De-Marsan, Frankrijk (7607): temperatuur -20cm & temperatuur -100cm: 27.11.2020 23:00:00 - 03.12.2020 23:00:00 (CET)Mont-De-Marsan, Frankrijk (7607): windsnelheid & windstoten: 27.11.2020 23:00:00 - 03.12.2020 23:00:00 (CET)Mont-De-Marsan, Frankrijk (7607): windrichting: 27.11.2020 23:00:00 - 03.12.2020 23:00:00 (CET)Mont-De-Marsan, Frankrijk (7607): luchtdruk: 27.11.2020 23:00:00 - 03.12.2020 23:00:00 (CET)Mont-De-Marsan, Frankrijk (7607): zicht: 27.11.2020 23:00:00 - 03.12.2020 23:00:00 (CET)Mont-De-Marsan, Frankrijk (7607): Zonneschijnduur: 27.11.2020 23:00:00 - 03.12.2020 23:00:00 (CET)Mont-De-Marsan, Frankrijk (7607): neerslag: 27.11.2020 23:00:00 - 03.12.2020 23:00:00 (CET)
Datum & Tijd tt [°C] td [°C] tt 5cm [°C] tt -20cm [°C] tt -100cm [°C] ff [km/u] ff [kn] fx [km/u] fx [kn] dd ppp [hPa] vv [km] sd [min] rr [mm]
03.12.2020 23:00:00 11,8 3,5 9,4 9,7 12,7 18 10 36 19 ZW 992,6 60 0 0,0
03.12.2020 22:00:00 10,5 4,6 7,5 9,7 12,7 14 7 29 15 Z 993,1 60 0 0,2
03.12.2020 21:00:00 10,1 4,2 7,6 9,7 12,7 14 7 37 20 ZZW 995,4 25 0 0,0
03.12.2020 20:00:00 10,4 4,3 7,6 9,6 12,7 21 11 41 22 ZZW 996,9 42 0 0,4
03.12.2020 19:00:00 11,1 4,1 7,8 9,6 12,7 15 8 30 16 ZZW 997,9 14 0 0,2
03.12.2020 18:00:00 11,5 4,7 10,5 9,5 12,7 13 7 23 12 ZZW 998,7 60 0 0,0
03.12.2020 17:00:00 11,8 5,0 10,9 9,4 12,7 11 6 25 14 ZW 1000,3 60 0 0,0
03.12.2020 16:00:00 12,2 5,8 11,7 9,2 12,7 12 7 31 17 WZW 1001,0 60 0 0,0
03.12.2020 15:00:00 13,0 5,6 13,1 9,1 12,7 14 8 32 17 WZW 1002,4 60 16 0,0
03.12.2020 14:00:00 12,7 6,9 13,5 8,9 12,7 16 8 33 18 ZW 1004,0 60 19 0,0
03.12.2020 13:00:00 12,2 7,9 10,4 8,8 12,7 16 9 29 16 ZW 1006,5 60 10 0,0
03.12.2020 12:00:00 10,2 8,8 9,3 8,8 12,7 10 5 27 14 ZW 1007,8 59 8 0,0
03.12.2020 11:00:00 9,0 7,9 8,2 8,8 12,8 13 7 26 14 ZW 1009,5 18 3 0,0
03.12.2020 10:00:00 8,2 7,0 7,3 8,7 12,7 11 6 23 13 ZZW 1010,6 6 1 0,0
03.12.2020 09:00:00 7,6 5,9 6,5 8,7 12,8 9 5 23 12 ZW 1011,7 7 0 0,2
03.12.2020 08:00:00 7,4 5,2 6,1 8,7 12,8 10 6 17 9 ZZW 1012,2 10 0 0,0
03.12.2020 07:00:00 7,1 3,9 6,1 8,7 12,8 8 4 14 7 ZZW 1013,1 6 0 0,0
03.12.2020 06:00:00 7,2 3,4 5,8 8,8 12,8 9 5 17 9 ZZW 1014,0 60 0 0,0
03.12.2020 05:00:00 6,8 2,9 4,9 8,8 12,8 11 6 18 10 ZZW 1015,0 60 0 0,0
03.12.2020 04:00:00 6,4 2,5 4,7 8,9 12,8 9 5 18 10 ZZW 1015,9 60 0 0,0
03.12.2020 03:00:00 6,4 2,5 4,9 8,9 12,8 9 5 18 10 Z 1016,9 60 0 0,0
03.12.2020 02:00:00 5,7 2,9 2,6 9,0 12,8 6 4 13 7 ZZW 1018,0 51 0 0,0
03.12.2020 01:00:00 4,6 2,5 0,1 9,1 12,8 4 2 8 4 ZW 1019,0 33 0 0,0
03.12.2020 00:00:00 4,3 1,8 1,5 9,1 12,8 4 2 12 6 ZW 1019,3 29 0 0,0
02.12.2020 23:00:00 5,5 3,2 0,8 9,2 12,8 8 5 11 6 ZZW 1019,6 22 0 0,0
02.12.2020 22:00:00 6,2 3,2 4,5 9,2 12,8 4 2 9 5 ZW 1020,6 20 0 0,0
02.12.2020 21:00:00 6,0 3,5 4,8 9,2 12,9 5 3 8 4 ZW 1020,8 29 0 0,0
02.12.2020 20:00:00 5,8 2,6 4,2 9,2 12,9 5 3 9 5 WZW 1020,8 34 0 0,0
02.12.2020 19:00:00 4,8 2,3 0,0 9,2 12,9 7 4 9 5 W 1020,7 52 0 0,0
02.12.2020 18:00:00 5,8 1,3 0,2 9,1 12,9 4 2 13 7 WZW 1020,5 60 0 0,0
02.12.2020 17:00:00 8,5 2,3 8,0 9,0 12,8 10 6 19 10 WNW 1020,6 60 10 0,0
02.12.2020 16:00:00 9,6 2,0 7,7 9,0 12,9 13 7 19 11 W 1020,4 60 41 0,0
02.12.2020 15:00:00 9,2 2,1 8,3 8,8 12,9 14 7 19 11 WNW 1020,2 60 34 0,0
02.12.2020 14:00:00 9,4 4,0 8,6 8,7 12,9 10 5 18 10 NW 1020,4 60 18 0,0
02.12.2020 13:00:00 8,5 7,6 12,7 8,7 12,9 8 4 14 8 W 1020,6 20 60 0,0
02.12.2020 12:00:00 6,3 5,7 7,2 8,7 12,9 3 2 11 6 WZW 1021,7 18 28 0,0
02.12.2020 11:00:00 4,8 4,4 5,3 8,7 12,9 8 4 17 9 W 1022,2 15 19 0,0
02.12.2020 10:00:00 4,0 3,6 2,5 8,7 12,9 8 4 13 7 WZW 1022,0 15 5 0,0
02.12.2020 09:00:00 2,3 1,9 0,9 8,8 12,9 3 2 10 5 W 1022,1 6 0 0,0
02.12.2020 08:00:00 2,2 1,6 1,5 8,9 12,9 5 3 8 4 W 1021,7 8 0 0,0
02.12.2020 07:00:00 2,2 1,6 1,5 9,0 12,9 4 2 8 4 W 1021,6 6 0 0,0
02.12.2020 06:00:00 1,6 1,0 0,5 9,0 12,9 6 3 7 4 W 1021,7 3,6 0 0,0
02.12.2020 05:00:00 1,3 0,7 0,0 9,2 12,9 3 2 6 4 W 1021,7 4,0 0 0,0
02.12.2020 04:00:00 0,7 0,1 -3,1 9,3 12,9 3 2 6 3 WZW 1022,2 3,4 0 0,0
02.12.2020 03:00:00 0,3 -0,4 -3,7 9,4 12,9 2 1 4 2 WZW 1022,3 0,2 0 0,0
02.12.2020 02:00:00 1,4 0,7 -2,1 9,5 12,9 3 1 4 2 WZW 1022,2 0,2 0 0,0
02.12.2020 01:00:00 2,8 2,1 -1,1 9,5 13,0 3 2 8 4 W 1022,5 0,2 0 0,0
02.12.2020 00:00:00 3,9 3,2 1,1 9,6 13,0 6 3 9 5 NW 1022,6 2,2 0 0,0
01.12.2020 23:00:00 5,2 4,5 2,6 9,6 13,0 6 3 13 7 N 1022,4 9 0 0,0
01.12.2020 22:00:00 6,4 5,7 3,5 9,6 13,0 5 3 13 7 N 1022,3 6 0 0,0
01.12.2020 21:00:00 7,3 6,6 6,7 9,5 13,0 9 5 13 7 N 1021,9 6 0 0,0
01.12.2020 20:00:00 7,4 6,7 7,1 9,5 13,0 8 4 15 8 NNO 1021,9 6 0 0,0
01.12.2020 19:00:00 7,6 6,7 7,3 9,4 13,0 8 5 12 7 NNO 1022,0 15 0 0,0
01.12.2020 18:00:00 7,8 6,6 7,6 9,3 13,0 10 6 22 12 NO 1021,7 3,3 0 1,0
01.12.2020 17:00:00 9,8 7,9 9,3 9,2 13,0 7 4 21 12 WNW 1021,4 1,5 0 1,0
01.12.2020 16:00:00 11,0 7,1 10,6 9,1 13,0 11 6 18 10 ZW 1021,5 20 0 0,0
01.12.2020 15:00:00 10,4 6,5 10,6 9,0 13,0 10 5 19 10 ZW 1022,6 18 0 0,0
01.12.2020 14:00:00 9,6 8,2 10,8 8,9 13,0 8 4 12 7 WZW 1023,4 16 0 0,0
01.12.2020 13:00:00 8,1 7,7 6,6 8,9 13,0 6 3 14 8 WZW 1024,5 10 0 0,0
01.12.2020 12:00:00 4,9 4,3 5,7 8,8 13,0 4 2 10 5 WZW 1026,0 5 0 0,0
01.12.2020 11:00:00 4,9 4,5 3,9 8,9 13,1 6 3 9 5 WNW 1026,6 8 0 0,0
01.12.2020 10:00:00 2,6 2,2 2,0 9,0 13,1 3 1 7 4 Z 1026,8 3,9 0 0,0
01.12.2020 09:00:00 1,5 1,1 0,0 9,0 13,1 4 2 16 9 Z 1027,2 4,5 0 0,0
01.12.2020 08:00:00 0,4 0,0 -0,4 9,1 13,1 4 2 5 3 ZZO 1026,4 11 0 0,0
01.12.2020 07:00:00 -0,5 -1,1 -3,6 9,2 13,1 0 0 3 1 N 1026,9 13 0 0,0
01.12.2020 06:00:00 -1,4 -2,0 -4,1 9,4 13,1 2 1 4 2 N 1027,4 15 0 0,0
01.12.2020 05:00:00 -1,2 -1,8 -3,6 9,5 13,1 2 1 3 2 N 1027,4 13 0 0,0
01.12.2020 04:00:00 -1,2 -1,8 -3,3 9,6 13,1 0 0 6 3 N 1027,9 11 0 0,0
01.12.2020 03:00:00 -1,2 -1,8 -2,7 9,7 13,1 3 1 5 3 NO 1027,8 7 0 0,0
01.12.2020 02:00:00 -0,5 -1,1 -1,7 9,8 13,1 0 0 2 1 N 1027,6 0,1 0 0,0
01.12.2020 01:00:00 -0,3 -1,0 -0,7 9,8 13,1 0 0 5 3 N 1027,9 0,1 0 0,0
01.12.2020 00:00:00 0,4 -0,3 -0,7 9,9 13,1 0 0 6 3 N 1028,0 0,1 0 0,0
30.11.2020 23:00:00 0,1 -0,6 -0,9 9,9 13,1 6 3 7 4 N 1027,7 0,1 0 0,0
30.11.2020 22:00:00 2,3 1,4 1,9 10,0 13,1 0 0 3 2 N 1027,4 0,1 0 0,0
30.11.2020 21:00:00 3,4 2,5 2,4 10,0 13,1 0 0 5 3 N 1027,5 0,1 0 0,0
30.11.2020 20:00:00 3,8 2,8 2,0 10,0 13,1 4 2 5 3 ONO 1026,8 0,1 0 0,0
30.11.2020 19:00:00 5,3 3,9 -0,5 10,0 13,1 4 2 7 4 ZZO 1026,2 0,1 0 0,0
30.11.2020 18:00:00 7,2 5,2 4,4 9,9 13,1 4 2 8 4 ZZW 1025,9 4,7 0 0,0
30.11.2020 17:00:00 10,4 6,3 9,2 9,8 13,1 5 3 10 5 WZW 1025,1 21 56 0,0
30.11.2020 16:00:00 11,6 6,9 14,4 9,6 13,1 6 4 9 5 W 1024,6 19 60 0,0
30.11.2020 15:00:00 11,4 7,1 15,5 9,5 13,2 3 2 9 5 WZW 1024,6 16 60 0,0
30.11.2020 14:00:00 9,9 8,7 15,0 9,4 13,2 6 3 10 5 WZW 1024,8 11 60 0,0
30.11.2020 13:00:00 8,0 7,6 8,3 9,3 13,1 4 2 8 4 ZZW 1025,1 8 26 0,0
30.11.2020 12:00:00 5,3 4,7 6,4 9,4 13,1 0 0 6 3 N 1025,6 0,3 0 0,0
30.11.2020 11:00:00 4,2 3,6 6,0 9,5 13,2 4 2 10 5 O 1025,5 0,2 24 0,0
30.11.2020 10:00:00 2,5 1,9 0,5 9,6 13,2 6 3 7 4 NNO 1025,4 7 14 0,0
30.11.2020 09:00:00 1,0 0,4 -3,7 9,7 13,2 3 1 8 5 NNO 1024,6 7 0 0,0
30.11.2020 08:00:00 -0,1 -0,7 -3,7 9,8 13,2 2 1 8 4 NNO 1023,7 7 0 0,0
30.11.2020 07:00:00 0,6 0,0 -3,5 9,9 13,2 0 0 3 2 N 1023,3 9 0 0,0
30.11.2020 06:00:00 0,8 0,2 -2,0 10,1 13,2 2 1 7 4 ONO 1022,5 9 0 0,0
30.11.2020 05:00:00 0,8 0,1 -2,2 10,2 13,2 6 3 8 4 NO 1022,1 15 0 0,0
30.11.2020 04:00:00 2,5 1,9 -2,1 10,3 13,1 0 0 4 2 N 1022,0 9 0 0,0
30.11.2020 03:00:00 2,5 1,9 -2,1 10,5 13,1 0 0 3 2 N 1021,8 8 0 0,0
30.11.2020 02:00:00 2,6 1,9 -1,5 10,6 13,1 0 0 4 2 N 1021,4 5 0 0,0
30.11.2020 01:00:00 3,5 2,8 -1,0 10,7 13,1 2 1 4 2 O 1021,1 17 0 0,0
30.11.2020 00:00:00 3,9 3,2 -0,4 10,8 13,2 0 0 3 1 N 1020,8 3,8 0 0,0
29.11.2020 23:00:00 4,5 3,6 -0,1 10,9 13,2 0 0 5 3 N 1020,3 0,3 0 0,0
29.11.2020 22:00:00 6,0 5,1 0,7 10,9 13,1 0 0 3 1 N 1019,9 0,1 0 0,0
29.11.2020 21:00:00 6,5 5,4 1,5 10,9 13,1 0 0 0 0 N 1019,5 0,2 0 0,0
29.11.2020 20:00:00 7,8 6,6 2,0 11,0 13,1 0 0 5 3 N 1019,0 1,4 0 0,0
29.11.2020 19:00:00 9,6 8,2 3,4 10,9 13,2 0 0 4 2 N 1018,3 7 0 0,0
29.11.2020 18:00:00 10,2 7,4 6,5 10,8 13,2 4 2 6 3 NO 1017,7 14 0 0,0
29.11.2020 17:00:00 15,0 8,7 13,7 10,6 13,1 2 1 6 3 N 1017,2 60 52 0,0
29.11.2020 16:00:00 17,2 9,4 22,1 10,4 13,2 4 2 9 5 NO 1016,7 59 60 0,0
29.11.2020 15:00:00 17,8 9,4 21,9 10,3 13,2 2 1 11 6 ZO 1016,6 50 60 0,0
29.11.2020 14:00:00 17,2 9,9 21,5 10,1 13,2 5 3 12 7 O 1016,8 60 60 0,0
29.11.2020 13:00:00 15,5 10,7 20,5 10,0 13,2 7 4 13 7 ONO 1016,9 59 60 0,0
29.11.2020 12:00:00 13,8 11,0 18,0 10,0 13,2 4 2 8 4 NO 1017,5 29 60 0,0
29.11.2020 11:00:00 11,6 11,0 13,3 10,1 13,1 4 2 11 6 OZO 1017,4 20 60 0,0
29.11.2020 10:00:00 8,5 8,1 5,8 10,2 13,1 3 2 8 4 ONO 1016,8 17 60 0,0
29.11.2020 09:00:00 5,0 4,4 1,7 10,3 13,2 3 1 5 3 NO 1016,2 3,0 24 0,0
29.11.2020 08:00:00 5,2 4,6 1,7 10,4 13,2 4 2 12 7 O 1015,4 6 0 0,0
29.11.2020 07:00:00 4,3 3,7 1,1 10,5 13,1 8 4 13 7 NNO 1014,6 7 0 0,0
29.11.2020 06:00:00 5,4 4,8 0,7 10,6 13,1 0 0 7 4 N 1014,3 14 0 0,0
29.11.2020 05:00:00 5,6 4,9 1,6 10,7 13,1 3 1 9 5 O 1014,0 1,4 0 0,0
29.11.2020 04:00:00 6,8 6,1 2,3 10,8 13,2 3 2 15 8 ZW 1013,7 1,1 0 0,0
29.11.2020 03:00:00 6,8 6,1 3,5 10,9 13,1 9 5 15 8 NO 1013,5 15 0 0,0
29.11.2020 02:00:00 7,2 6,3 4,4 10,9 13,1 7 4 12 7 NO 1013,5 14 0 0,0
29.11.2020 01:00:00 8,0 7,1 4,0 11,0 13,1 3 2 12 6 NNO 1013,2 27 0 0,0
29.11.2020 00:00:00 7,7 6,3 3,3 11,1 13,1 5 3 12 7 NO 1013,0 43 0 0,0
28.11.2020 23:00:00 8,7 7,0 4,5 11,1 13,1 4 2 11 6 ONO 1012,6 59 0 0,0
28.11.2020 22:00:00 11,6 8,8 9,4 11,1 13,1 10 6 21 12 O 1012,1 60 0 0,0
28.11.2020 21:00:00 12,2 8,8 10,7 11,0 13,1 11 6 26 14 O 1011,3 60 0 0,0
28.11.2020 20:00:00 13,2 9,4 11,9 11,0 13,1 18 10 27 15 O 1010,5 60 0 0,0
28.11.2020 19:00:00 14,4 9,6 13,2 10,9 13,2 18 10 34 18 O 1010,0 60 0 0,0
28.11.2020 18:00:00 15,1 10,1 14,3 10,8 13,1 18 10 35 19 OZO 1009,3 60 0 0,0
28.11.2020 17:00:00 15,2 10,2 14,9 10,6 13,1 11 6 33 18 O 1008,8 60 2 0,0
28.11.2020 16:00:00 15,9 10,0 16,1 10,5 13,1 19 10 39 21 OZO 1008,2 60 31 0,0
28.11.2020 15:00:00 15,8 10,1 16,0 10,4 13,1 23 12 38 20 O 1007,7 60 9 0,0
28.11.2020 14:00:00 14,7 9,9 15,4 10,2 13,1 18 10 36 20 O 1007,7 60 19 0,0
28.11.2020 13:00:00 14,7 10,1 14,8 10,1 13,1 21 12 33 18 O 1007,8 60 33 0,0
28.11.2020 12:00:00 13,6 10,0 11,4 10,1 13,1 19 10 35 19 O 1008,0 60 19 0,0
28.11.2020 11:00:00 11,5 10,1 10,8 10,1 13,1 16 9 23 13 ONO 1008,1 51 9 0,0
28.11.2020 10:00:00 10,5 9,9 8,8 10,2 13,1 11 6 17 9 NO 1007,8 35 23 0,0
28.11.2020 09:00:00 9,0 8,4 5,8 10,3 13,1 11 6 22 12 NO 1008,3 28 0 0,0
28.11.2020 08:00:00 7,1 6,4 5,2 10,4 13,1 10 5 19 10 ONO 1008,2 14 0 0,0
28.11.2020 07:00:00 7,9 7,3 3,9 10,4 13,1 11 6 15 8 ONO 1007,9 20 0 0,0
28.11.2020 06:00:00 7,6 6,8 5,6 10,5 13,1 9 5 21 11 ONO 1008,1 15 0 0,0
28.11.2020 05:00:00 8,7 8,1 6,6 10,6 13,1 14 8 18 10 ONO 1007,9 17 0 0,0
28.11.2020 04:00:00 8,0 7,2 3,9 10,7 13,1 11 6 14 8 ONO 1008,5 11 0 0,0
28.11.2020 03:00:00 8,2 7,3 3,9 10,7 13,1 5 3 10 6 ONO 1009,0 7 0 0,0
28.11.2020 02:00:00 9,2 8,3 3,7 10,8 13,2 6 3 9 5 ONO 1009,0 19 0 0,0
28.11.2020 01:00:00 9,5 8,4 5,0 10,8 13,1 3 2 16 9 O 1009,5 16 0 0,0
28.11.2020 00:00:00 9,2 7,8 6,1 10,9 13,1 8 5 15 8 ONO 1010,0 25 0 0,0
27.11.2020 23:00:00 10,3 8,4 8,1 10,9 13,1 10 5 17 9 ONO 1010,3 26 0 0,0

tt = temperatuur
td = dauwpunt
tt 5cm = temperatuur 5cm
tt -20cm = temperatuur -20cm
tt -100cm = temperatuur -100cm
ff = windsnelheid
fx = windstoten
dd = windrichting
ppp = luchtdruk
vv = zicht
sd = Zonneschijnduur
rr = neerslag

Weerstations in de omgeving